Current weather by "City, St" or "zip code"  
 

Current Conditions: Manassas, Manassas Regional Airport/Harry P. Davis Field, VA

Fair


61.0 F

Last Updated on Oct 23 2020, 10:56 pm EDT
Humidity: 93%
Wind Speed: SE 4.6 mph
Barometer 30.03 in
Dewpoint: 59.0 F
Visibility: 10.00 mi
Precip: --
Heat Index: NA
Wind Chill: 61 F
Current conditions at:

Manassas, Manassas Regional Airport/Harry P. Davis Field, VA (KHEF)

Lat: 38.71667 Lon: 77.51667

Local Radar Image active severe weather and emergency alerts image image weather storm and storm spotter reports image weather observation monitoring service image
Local
Radar
Active
Alerts
Storm Reports Obs
Monitoring

Sign-up For Email & Text Message Weather Alert Notification Services



Advertise Here

Observation History for Manassas, Manassas Regional Airport/Harry P. Davis Field, VA


Time Wind
(mph)
Vis
(mi)
Weather Precip (in) Temperature (F) Relative
Humidity
Wind
Chill
(F)
Heat
Index
(F)
Pressure
Air Dwpt altimeter
(in)
sea level
(mb)
Rmks
10:56 pm EDT SE 4.6 10.00 Fair -- 61.0 59.0 93% 61 NA 30.03 1017.5
9:56 pm EDT S 3.5 10.00 Fair -- 63.0 60.1 90% NA NA 30.04 1017.7
8:56 pm EDT S 5.8 10.00 Fair -- 64.0 60.1 87% NA NA 30.04 1017.9
7:56 pm EDT SE 8.1 10.00 Fair -- 66.0 61.0 84% NA NA 30.05 1018.1
6:56 pm EDT SE 5.8 10.00 Fair -- 68.0 61.0 78% NA NA 30.05 1018.2
5:56 pm EDT SE 9.2 10.00 Fair -- 72.0 62.1 71% NA NA 30.05 1018.1
4:56 pm EDT SE 10.4 10.00 Fair -- 75.0 61.0 62% NA NA 30.06 1018.5
3:56 pm EDT SE 8.1 10.00 Partly Cloudy -- 75.0 61.0 62% NA NA 30.08 1019.1
2:56 pm EDT S 11.5 10.00 Mostly Cloudy -- 78.0 61.0 56% NA NA 30.10 1019.5
1:56 pm EDT S 10.4 G 16.1 10.00 Fair -- 78.0 60.1 54% NA NA 30.11 1020.1
12:56 pm EDT S 10.4 10.00 Fair -- 76.0 63.0 64% NA NA 30.15 1021.4
11:56 am EDT S 4.6 10.00 A Few Clouds -- 73.0 64.0 74% NA NA 30.18 1022.4
10:56 am EDT N 0.0 10.00 Fair -- 66.0 63.0 90% NA NA 30.20 1023.0
9:56 am EDT S 3.5 4.00 Fog/Mist -- 62.0 62.1 100% NA NA 30.21 1023.7
8:56 am EDT N 0.0 10.00 Mostly Cloudy -- 59.0 57.9 96% NA NA 30.21 1023.6
7:56 am EDT N 0.0 9.00 Fair -- 54.0 54.0 100% NA NA 30.19 1022.9
6:56 am EDT N 0.0 10.00 Fair -- 55.0 55.0 100% NA NA 30.18 1022.5
5:56 am EDT N 0.0 0.50 Fog -- 56.0 55.0 97% NA NA 30.17 1022.0
4:56 am EDT N 0.0 0.25 Fog -- 56.0 55.9 100% NA NA 30.16 1021.7
3:56 am EDT N 0.0 0.50 Fog -- 56.0 55.9 100% NA NA 30.16 1021.6
2:56 am EDT N 0.0 10.00 A Few Clouds -- 55.0 55.0 100% NA NA 30.17 1022.1
1:56 am EDT N 0.0 4.00 Fog/Mist -- 58.0 57.0 97% NA NA 30.18 1022.4
12:56 am EDT N 0.0 10.00 Fair -- 59.0 57.9 96% NA NA 30.19 1022.9
11:56 pm EDT N 0.0 10.00 Fair -- 61.0 60.1 97% NA NA 30.20 1023.2

Regional Weather Observation


Manassas, Manassas Regional Airport/Harry P. Davis Field, VA (KHEF)

Fair
61.0 F

Leesburg / Godfrey, VA (KJYO)

Fair
NULL F

Warrenton-Fauquier Airport, VA (KHWY)

Fair
57.0 F

Culpeper Regional Airport, VA (KCJR)

Fair
58.0 F

Fort Belvoir, VA (KDAA)

Fair
60.0 F

Washington/Reagan National Airport, DC, VA (KDCA)

A Few Clouds
65.0 F